QPF
0.00 0.00 0.00 0.00 0.00 0.00 0.00 0.00 0.00 0.00 0.00 0.00 0.00 0.00 0.00 0.00 0.00 0.00 0.00 0.01 0.01 0.01 0.01 0.01 0.02 0.02 0.03 0.03 0.03 0.03 0.03 0.04 0.04 0.04 0.04 0.05 0.05 0.06 0.06 0.05 0.04 0.04 0.04 0.03
0.00 0.00 0.01 0.01 0.00 0.00 0.00 0.00 0.00 0.02 0.01 0.00 0.00 0.00 0.00 0.00 0.00 0.00 0.00 0.00 0.00 0.01 0.01 0.02 0.02 0.02 0.03 0.04 0.04 0.04 0.04 0.05 0.05 0.05 0.05 0.05 0.05 0.05 0.06 0.05 0.05 0.05 0.04 0.04
0.00 0.00 0.00 0.01 0.00 0.00 0.00 0.00 0.00 0.01 0.01 0.00 0.00 0.00 0.00 0.00 0.00 0.00 0.00 0.00 0.00 0.01 0.01 0.01 0.01 0.01 0.02 0.02 0.02 0.03 0.04 0.05 0.05 0.04 0.05 0.04 0.04 0.04 0.04 0.04 0.05 0.05 0.05 0.05
0.00 0.00 0.00 0.00 0.00 0.00 0.00 0.00 0.00 0.00 0.00 0.00 0.00 0.00 0.00 0.00 0.00 0.00 0.00 0.01 0.01 0.01 0.01 0.02 0.02 0.02 0.02 0.01 0.01 0.02 0.04 0.05 0.05 0.04 0.04 0.03 0.03 0.02 0.02 0.02 0.03 0.04 0.06 0.07
0.00 0.01 0.02 0.01 0.01 0.02 0.01 0.00 0.00 0.00 0.00 0.00 0.00 0.00 0.00 0.00 0.00 0.00 0.01 0.01 0.01 0.02 0.02 0.02 0.02 0.02 0.02 0.02 0.02 0.02 0.03 0.05 0.05 0.04 0.03 0.02 0.02 0.02 0.02 0.03 0.03 0.04 0.06 0.06
0.00 0.01 0.04 0.04 0.03 0.03 0.02 0.01 0.00 0.00 0.00 0.00 0.00 0.01 0.01 0.00 0.00 0.00 0.00 0.01 0.01 0.01 0.01 0.02 0.02 0.02 0.01 0.01 0.02 0.03 0.04 0.05 0.06 0.04 0.03 0.02 0.02 0.02 0.02 0.02 0.03 0.04 0.05 0.05
0.00 0.00 0.03 0.05 0.04 0.01 0.02 0.02 0.00 0.00 0.00 0.00 0.00 0.01 0.00 0.00 0.00 0.00 0.00 0.01 0.01 0.00 0.00 0.01 0.01 0.01 0.02 0.03 0.05 0.07 0.06 0.07 0.08 0.05 0.03 0.02 0.02 0.02 0.02 0.02 0.02 0.03 0.04 0.04
0.00 0.01 0.03 0.03 0.05 0.04 0.02 0.02 0.01 0.01 0.00 0.00 0.00 0.00 0.00 0.00 0.00 0.00 0.01 0.01 0.01 0.01 0.01 0.01 0.01 0.01 0.01 0.02 0.04 0.07 0.09 0.14 0.14 0.08 0.04 0.02 0.02 0.02 0.02 0.02 0.02 0.02 0.03 0.03
0.01 0.01 0.01 0.01 0.01 0.03 0.02 0.01 0.01 0.01 0.01 0.00 0.00 0.00 0.00 0.01 0.01 0.01 0.01 0.01 0.01 0.01 0.01 0.01 0.01 0.02 0.02 0.02 0.03 0.04 0.07 0.09 0.09 0.07 0.06 0.04 0.03 0.02 0.02 0.02 0.02 0.02 0.02 0.02
0.01 0.01 0.01 0.01 0.01 0.01 0.01 0.01 0.01 0.01 0.01 0.00 0.00 0.00 0.00 0.01 0.01 0.01 0.01 0.01 0.01 0.01 0.01 0.01 0.01 0.02 0.02 0.03 0.03 0.04 0.06 0.08 0.07 0.07 0.06 0.05 0.04 0.02 0.02 0.02 0.02 0.02 0.03 0.03
0.01 0.02 0.02 0.01 0.01 0.00 0.00 0.00 0.01 0.01 0.01 0.01 0.00 0.00 0.00 0.00 0.00 0.01 0.01 0.01 0.01 0.01 0.02 0.02 0.03 0.04 0.04 0.05 0.05 0.05 0.05 0.07 0.06 0.06 0.06 0.07 0.05 0.04 0.03 0.03 0.04 0.05 0.05 0.04
0.01 0.02 0.02 0.01 0.00 0.00 0.00 0.00 0.01 0.01 0.01 0.00 0.00 0.00 0.00 0.00 0.00 0.01 0.01 0.01 0.01 0.02 0.02 0.03 0.03 0.04 0.06 0.07 0.07 0.08 0.07 0.07 0.06 0.04 0.05 0.07 0.06 0.06 0.05 0.04 0.04 0.05 0.07 0.07
0.01 0.01 0.02 0.02 0.01 0.00 0.00 0.01 0.01 0.01 0.01 0.00 0.00 0.00 0.01 0.01 0.01 0.01 0.01 0.01 0.02 0.03 0.04 0.04 0.03 0.04 0.04 0.05 0.06 0.08 0.09 0.09 0.09 0.06 0.06 0.05 0.05 0.06 0.07 0.07 0.07 0.07 0.07 0.07
0.01 0.01 0.01 0.02 0.01 0.00 0.00 0.00 0.00 0.00 0.01 0.01 0.01 0.01 0.01 0.01 0.01 0.01 0.01 0.02 0.02 0.03 0.04 0.04 0.04 0.05 0.04 0.03 0.04 0.05 0.05 0.05 0.06 0.06 0.06 0.05 0.04 0.04 0.05 0.07 0.09 0.10 0.09 0.08
0.00 0.00 0.01 0.01 0.01 0.01 0.00 0.00 0.00 0.00 0.00 0.00 0.01 0.01 0.01 0.01 0.01 0.02 0.02 0.02 0.02 0.03 0.03 0.02 0.02 0.03 0.02 0.02 0.03 0.03 0.03 0.04 0.04 0.04 0.04 0.05 0.04 0.03 0.04 0.05 0.06 0.06 0.07 0.08
0.00 0.00 0.01 0.01 0.01 0.01 0.01 0.00 0.01 0.00 0.00 0.00 0.01 0.01 0.01 0.02 0.02 0.03 0.03 0.03 0.03 0.03 0.03 0.03 0.03 0.03 0.03 0.02 0.02 0.02 0.02 0.04 0.03 0.04 0.04 0.05 0.04 0.04 0.05 0.06 0.05 0.04 0.04 0.03
0.01 0.01 0.01 0.01 0.01 0.01 0.01 0.00 0.00 0.01 0.01 0.01 0.01 0.01 0.01 0.01 0.01 0.02 0.02 0.03 0.03 0.04 0.04 0.04 0.04 0.03 0.03 0.03 0.03 0.04 0.04 0.06 0.07 0.07 0.07 0.07 0.06 0.06 0.04 0.06 0.07 0.05 0.04 0.03
0.01 0.01 0.01 0.01 0.01 0.01 0.01 0.01 0.00 0.01 0.01 0.01 0.01 0.01 0.01 0.02 0.01 0.01 0.02 0.02 0.03 0.04 0.04 0.04 0.03 0.03 0.03 0.03 0.04 0.06 0.07 0.10 0.11 0.15 0.13 0.11 0.09 0.06 0.04 0.04 0.05 0.05 0.05 0.04
0.01 0.01 0.01 0.01 0.01 0.01 0.01 0.01 0.00 0.01 0.01 0.01 0.01 0.01 0.02 0.03 0.02 0.03 0.03 0.03 0.04 0.04 0.03 0.03 0.02 0.03 0.03 0.02 0.03 0.05 0.07 0.08 0.10 0.15 0.15 0.11 0.08 0.05 0.04 0.04 0.04 0.04 0.03 0.03
0.02 0.01 0.01 0.02 0.02 0.01 0.01 0.01 0.01 0.01 0.01 0.01 0.01 0.02 0.02 0.02 0.04 0.04 0.04 0.04 0.05 0.03 0.02 0.01 0.01 0.02 0.03 0.03 0.03 0.02 0.03 0.06 0.07 0.09 0.11 0.10 0.07 0.06 0.04 0.03 0.03 0.03 0.03 0.02
0.04 0.03 0.03 0.02 0.02 0.02 0.01 0.01 0.01 0.01 0.01 0.01 0.02 0.03 0.02 0.02 0.03 0.04 0.04 0.04 0.04 0.02 0.02 0.01 0.01 0.01 0.01 0.02 0.02 0.02 0.01 0.02 0.03 0.05 0.06 0.07 0.06 0.04 0.03 0.02 0.02 0.02 0.02 0.02
0.04 0.03 0.04 0.04 0.03 0.03 0.02 0.02 0.01 0.01 0.01 0.01 0.02 0.03 0.03 0.02 0.02 0.03 0.04 0.05 0.03 0.02 0.01 0.01 0.01 0.01 0.01 0.01 0.01 0.01 0.01 0.01 0.01 0.02 0.03 0.03 0.04 0.04 0.03 0.04 0.03 0.03 0.03 0.03
0.04 0.04 0.06 0.07 0.04 0.03 0.02 0.02 0.02 0.02 0.02 0.02 0.02 0.02 0.02 0.02 0.02 0.02 0.03 0.04 0.03 0.02 0.02 0.01 0.01 0.01 0.01 0.01 0.01 0.01 0.00 0.00 0.01 0.02 0.02 0.03 0.03 0.04 0.05 0.05 0.05 0.04 0.03 0.03
0.05 0.05 0.10 0.10 0.05 0.03 0.02 0.02 0.02 0.02 0.02 0.02 0.02 0.01 0.01 0.02 0.02 0.02 0.02 0.03 0.04 0.03 0.02 0.01 0.01 0.01 0.01 0.00 0.01 0.01 0.01 0.01 0.01 0.01 0.01 0.02 0.03 0.04 0.04 0.05 0.07 0.06 0.04 0.03
0.07 0.07 0.08 0.08 0.05 0.04 0.03 0.03 0.02 0.02 0.02 0.02 0.02 0.01 0.01 0.02 0.02 0.02 0.02 0.02 0.03 0.02 0.01 0.01 0.01 0.01 0.01 0.00 0.00 0.01 0.01 0.01 0.01 0.01 0.01 0.02 0.03 0.03 0.04 0.05 0.07 0.06 0.04 0.04
0.07 0.06 0.05 0.05 0.04 0.03 0.02 0.02 0.02 0.02 0.02 0.02 0.02 0.02 0.02 0.02 0.02 0.02 0.02 0.03 0.02 0.01 0.01 0.01 0.01 0.01 0.01 0.01 0.01 0.01 0.01 0.01 0.02 0.02 0.02 0.03 0.04 0.04 0.04 0.05 0.06 0.07 0.05 0.04
0.06 0.05 0.05 0.03 0.02 0.01 0.01 0.01 0.01 0.01 0.02 0.02 0.02 0.02 0.02 0.01 0.02 0.02 0.02 0.03 0.03 0.02 0.01 0.01 0.01 0.01 0.01 0.01 0.01 0.01 0.01 0.01 0.02 0.03 0.03 0.04 0.04 0.04 0.03 0.03 0.04 0.05 0.05 0.04
MSLP
1012.04 1012.11 1012.13 1012.15 1012.20 1012.31 1012.47 1012.67 1012.88 1013.07 1013.22 1013.32 1013.37 1013.40 1013.43 1013.50 1013.64 1013.85 1014.15 1014.51 1014.91 1015.33 1015.71 1016.05 1016.32 1016.52 1016.65 1016.71 1016.74 1016.74 1016.73 1016.70 1016.67 1016.62 1016.57 1016.52 1016.46 1016.41 1016.38 1016.37 1016.38 1016.40 1016.42 1016.43
1012.44 1012.49 1012.46 1012.37 1012.29 1012.24 1012.25 1012.30 1012.40 1012.52 1012.64 1012.75 1012.85 1012.94 1013.05 1013.19 1013.38 1013.64 1013.96 1014.33 1014.74 1015.16 1015.57 1015.93 1016.24 1016.49 1016.68 1016.80 1016.88 1016.93 1016.95 1016.95 1016.93 1016.91 1016.88 1016.84 1016.81 1016.78 1016.77 1016.78 1016.80 1016.82 1016.84 1016.82
1012.89 1012.93 1012.84 1012.66 1012.46 1012.27 1012.13 1012.05 1012.03 1012.07 1012.15 1012.25 1012.38 1012.52 1012.68 1012.88 1013.12 1013.41 1013.75 1014.13 1014.54 1014.96 1015.38 1015.76 1016.10 1016.39 1016.62 1016.80 1016.93 1017.01 1017.07 1017.09 1017.09 1017.08 1017.06 1017.03 1017.01 1016.99 1016.99 1016.99 1017.01 1017.02 1017.02 1016.99
1013.33 1013.34 1013.19 1012.94 1012.63 1012.32 1012.05 1011.85 1011.74 1011.70 1011.73 1011.83 1011.97 1012.15 1012.36 1012.60 1012.88 1013.20 1013.55 1013.93 1014.34 1014.75 1015.16 1015.55 1015.90 1016.21 1016.48 1016.69 1016.86 1016.98 1017.06 1017.11 1017.13 1017.12 1017.10 1017.07 1017.04 1017.02 1017.00 1017.00 1017.00 1016.99 1016.97 1016.92
1013.62 1013.60 1013.40 1013.08 1012.69 1012.30 1011.94 1011.65 1011.46 1011.36 1011.37 1011.45 1011.61 1011.82 1012.08 1012.36 1012.68 1013.02 1013.38 1013.76 1014.16 1014.55 1014.94 1015.31 1015.66 1015.98 1016.26 1016.50 1016.69 1016.84 1016.95 1017.02 1017.05 1017.05 1017.03 1016.99 1016.95 1016.90 1016.87 1016.84 1016.82 1016.80 1016.76 1016.71
1013.65 1013.59 1013.35 1012.99 1012.56 1012.11 1011.70 1011.37 1011.13 1011.01 1011.01 1011.10 1011.29 1011.54 1011.84 1012.17 1012.52 1012.89 1013.26 1013.63 1014.01 1014.37 1014.73 1015.08 1015.41 1015.71 1015.99 1016.24 1016.46 1016.63 1016.76 1016.85 1016.90 1016.90 1016.88 1016.83 1016.77 1016.71 1016.65 1016.59 1016.55 1016.51 1016.48 1016.42
1013.34 1013.24 1012.99 1012.61 1012.17 1011.72 1011.31 1010.97 1010.74 1010.63 1010.64 1010.76 1010.99 1011.28 1011.63 1012.01 1012.40 1012.79 1013.17 1013.54 1013.89 1014.22 1014.54 1014.85 1015.15 1015.44 1015.71 1015.96 1016.19 1016.39 1016.54 1016.65 1016.71 1016.73 1016.70 1016.64 1016.56 1016.47 1016.39 1016.31 1016.25 1016.21 1016.17 1016.14
1012.67 1012.55 1012.30 1011.96 1011.55 1011.14 1010.77 1010.48 1010.28 1010.21 1010.27 1010.44 1010.71 1011.06 1011.46 1011.88 1012.31 1012.72 1013.11 1013.46 1013.79 1014.09 1014.37 1014.64 1014.90 1015.17 1015.43 1015.68 1015.92 1016.14 1016.32 1016.45 1016.53 1016.56 1016.53 1016.46 1016.36 1016.24 1016.13 1016.03 1015.95 1015.90 1015.88 1015.87
1011.72 1011.60 1011.39 1011.10 1010.77 1010.44 1010.15 1009.93 1009.81 1009.80 1009.92 1010.14 1010.46 1010.86 1011.30 1011.76 1012.22 1012.65 1013.04 1013.39 1013.69 1013.96 1014.21 1014.44 1014.67 1014.91 1015.16 1015.42 1015.67 1015.90 1016.11 1016.26 1016.36 1016.39 1016.35 1016.26 1016.14 1015.99 1015.84 1015.72 1015.63 1015.58 1015.57 1015.60
1010.61 1010.53 1010.38 1010.18 1009.95 1009.73 1009.54 1009.42 1009.38 1009.45 1009.62 1009.89 1010.26 1010.69 1011.16 1011.65 1012.12 1012.56 1012.95 1013.29 1013.58 1013.82 1014.04 1014.24 1014.45 1014.67 1014.91 1015.16 1015.42 1015.67 1015.88 1016.05 1016.15 1016.18 1016.13 1016.02 1015.85 1015.67 1015.49 1015.34 1015.23 1015.18 1015.19 1015.25
1009.52 1009.49 1009.43 1009.33 1009.22 1009.11 1009.03 1009.01 1009.05 1009.18 1009.40 1009.71 1010.09 1010.54 1011.02 1011.51 1011.99 1012.43 1012.81 1013.14 1013.41 1013.64 1013.83 1014.02 1014.20 1014.41 1014.64 1014.88 1015.14 1015.39 1015.61 1015.77 1015.86 1015.87 1015.79 1015.65 1015.45 1015.22 1015.01 1014.82 1014.70 1014.64 1014.67 1014.75
1008.58 1008.62 1008.65 1008.66 1008.66 1008.66 1008.68 1008.74 1008.84 1009.01 1009.25 1009.57 1009.95 1010.39 1010.85 1011.33 1011.79 1012.22 1012.59 1012.91 1013.17 1013.38 1013.57 1013.74 1013.91 1014.10 1014.31 1014.55 1014.79 1015.02 1015.22 1015.36 1015.42 1015.40 1015.29 1015.10 1014.85 1014.59 1014.33 1014.12 1013.97 1013.91 1013.94 1014.04
1007.88 1007.99 1008.09 1008.19 1008.29 1008.38 1008.47 1008.59 1008.73 1008.91 1009.15 1009.45 1009.80 1010.20 1010.63 1011.08 1011.51 1011.91 1012.28 1012.58 1012.84 1013.05 1013.22 1013.38 1013.54 1013.72 1013.91 1014.12 1014.33 1014.52 1014.68 1014.78 1014.80 1014.73 1014.58 1014.34 1014.06 1013.76 1013.47 1013.23 1013.06 1012.99 1013.01 1013.12
1007.39 1007.56 1007.73 1007.91 1008.07 1008.22 1008.37 1008.51 1008.66 1008.84 1009.05 1009.31 1009.61 1009.96 1010.35 1010.75 1011.15 1011.53 1011.88 1012.17 1012.42 1012.63 1012.80 1012.95 1013.10 1013.25 1013.41 1013.57 1013.74 1013.88 1013.99 1014.03 1014.00 1013.88 1013.68 1013.41 1013.09 1012.76 1012.45 1012.19 1012.01 1011.93 1011.94 1012.04
1007.07 1007.28 1007.49 1007.72 1007.93 1008.12 1008.29 1008.44 1008.59 1008.75 1008.92 1009.14 1009.39 1009.68 1010.02 1010.37 1010.74 1011.09 1011.42 1011.71 1011.96 1012.16 1012.33 1012.47 1012.59 1012.71 1012.83 1012.94 1013.05 1013.13 1013.17 1013.15 1013.06 1012.90 1012.66 1012.36 1012.02 1011.68 1011.36 1011.10 1010.91 1010.82 1010.81 1010.88
1006.83 1007.05 1007.30 1007.55 1007.79 1008.01 1008.20 1008.35 1008.49 1008.62 1008.77 1008.94 1009.14 1009.39 1009.68 1009.99 1010.32 1010.65 1010.96 1011.24 1011.48 1011.68 1011.84 1011.96 1012.06 1012.14 1012.21 1012.27 1012.31 1012.32 1012.29 1012.21 1012.07 1011.86 1011.59 1011.28 1010.94 1010.60 1010.29 1010.03 1009.85 1009.74 1009.72 1009.76
1006.60 1006.84 1007.10 1007.37 1007.64 1007.87 1008.07 1008.23 1008.37 1008.49 1008.61 1008.76 1008.93 1009.14 1009.39 1009.67 1009.97 1010.28 1010.57 1010.84 1011.07 1011.26 1011.40 1011.51 1011.57 1011.61 1011.63 1011.62 1011.59 1011.53 1011.44 1011.30 1011.11 1010.87 1010.59 1010.27 1009.94 1009.62 1009.32 1009.08 1008.90 1008.78 1008.73 1008.73
1006.39 1006.63 1006.90 1007.20 1007.48 1007.73 1007.95 1008.13 1008.28 1008.41 1008.53 1008.66 1008.81 1009.00 1009.22 1009.48 1009.76 1010.04 1010.32 1010.57 1010.79 1010.96 1011.08 1011.16 1011.19 1011.18 1011.15 1011.08 1010.98 1010.86 1010.70 1010.51 1010.28 1010.01 1009.72 1009.40 1009.09 1008.78 1008.50 1008.27 1008.09 1007.96 1007.88 1007.83
1006.24 1006.49 1006.78 1007.09 1007.40 1007.68 1007.92 1008.13 1008.30 1008.44 1008.57 1008.71 1008.86 1009.03 1009.24 1009.48 1009.73 1009.99 1010.24 1010.47 1010.67 1010.82 1010.91 1010.96 1010.95 1010.90 1010.81 1010.69 1010.53 1010.35 1010.13 1009.89 1009.62 1009.33 1009.03 1008.71 1008.40 1008.11 1007.84 1007.61 1007.42 1007.27 1007.15 1007.06
1006.26 1006.52 1006.82 1007.15 1007.48 1007.79 1008.06 1008.29 1008.49 1008.66 1008.80 1008.94 1009.09 1009.26 1009.45 1009.66 1009.89 1010.12 1010.35 1010.55 1010.71 1010.83 1010.90 1010.91 1010.87 1010.78 1010.65 1010.47 1010.26 1010.02 1009.76 1009.47 1009.16 1008.84 1008.51 1008.18 1007.86 1007.56 1007.29 1007.05 1006.84 1006.66 1006.50 1006.35
1006.53 1006.80 1007.11 1007.45 1007.79 1008.11 1008.41 1008.66 1008.87 1009.05 1009.20 1009.34 1009.49 1009.64 1009.81 1009.99 1010.19 1010.38 1010.57 1010.74 1010.87 1010.96 1011.00 1010.98 1010.91 1010.78 1010.61 1010.39 1010.13 1009.84 1009.53 1009.19 1008.84 1008.48 1008.12 1007.76 1007.42 1007.10 1006.80 1006.54 1006.30 1006.08 1005.88 1005.69
1007.09 1007.36 1007.67 1008.01 1008.34 1008.66 1008.95 1009.20 1009.40 1009.58 1009.72 1009.85 1009.97 1010.10 1010.24 1010.38 1010.54 1010.69 1010.84 1010.97 1011.07 1011.12 1011.13 1011.09 1010.99 1010.83 1010.62 1010.37 1010.07 1009.74 1009.38 1008.99 1008.60 1008.19 1007.79 1007.39 1007.02 1006.66 1006.34 1006.04 1005.76 1005.51 1005.27 1005.03
1007.90 1008.16 1008.46 1008.77 1009.08 1009.36 1009.62 1009.84 1010.02 1010.16 1010.27 1010.37 1010.46 1010.54 1010.64 1010.74 1010.85 1010.96 1011.06 1011.15 1011.21 1011.23 1011.21 1011.14 1011.02 1010.84 1010.61 1010.32 1009.99 1009.63 1009.22 1008.80 1008.36 1007.91 1007.47 1007.03 1006.62 1006.23 1005.87 1005.53 1005.23 1004.94 1004.67 1004.40
1008.87 1009.11 1009.37 1009.63 1009.89 1010.12 1010.32 1010.48 1010.60 1010.70 1010.76 1010.81 1010.85 1010.89 1010.93 1010.98 1011.04 1011.10 1011.16 1011.20 1011.22 1011.21 1011.16 1011.07 1010.92 1010.72 1010.47 1010.16 1009.81 1009.42 1008.99 1008.54 1008.07 1007.59 1007.11 1006.65 1006.21 1005.79 1005.41 1005.05 1004.72 1004.42 1004.12 1003.84
1009.87 1010.06 1010.27 1010.47 1010.66 1010.82 1010.94 1011.03 1011.09 1011.12 1011.13 1011.12 1011.11 1011.09 1011.09 1011.09 1011.09 1011.10 1011.11 1011.10 1011.08 1011.03 1010.95 1010.82 1010.65 1010.43 1010.16 1009.84 1009.48 1009.07 1008.63 1008.17 1007.69 1007.20 1006.72 1006.25 1005.80 1005.38 1004.99 1004.63 1004.29 1003.98 1003.68 1003.39
1010.75 1010.91 1011.06 1011.19 1011.30 1011.38 1011.43 1011.45 1011.44 1011.41 1011.36 1011.30 1011.24 1011.18 1011.12 1011.07 1011.03 1010.99 1010.94 1010.88 1010.81 1010.71 1010.58 1010.42 1010.22 1009.97 1009.68 1009.35 1008.98 1008.58 1008.15 1007.70 1007.23 1006.77 1006.31 1005.86 1005.44 1005.03 1004.66 1004.31 1003.99 1003.68 1003.38 1003.07
1011.45 1011.56 1011.66 1011.73 1011.78 1011.80 1011.79 1011.75 1011.69 1011.61 1011.52 1011.42 1011.32 1011.22 1011.12 1011.03 1010.93 1010.83 1010.72 1010.60 1010.47 1010.31 1010.12 1009.91 1009.66 1009.38 1009.08 1008.74 1008.38 1007.99 1007.59 1007.17 1006.75 1006.33 1005.92 1005.53 1005.15 1004.79 1004.45 1004.13 1003.82 1003.51 1003.20 1002.88
Thickness
5802 5812 5814 5811 5812 5814 5808 5808 5799 5798 5798 5802 5807 5807 5805 5804 5802 5798 5793 5791 5788 5784 5780 5777 5775 5772 5770 5768 5766 5764 5760 5756 5753 5751 5749 5746 5744 5742 5740 5738 5737 5735 5733 5732
5785 5799 5802 5797 5803 5808 5808 5810 5804 5800 5796 5810 5811 5806 5800 5797 5794 5789 5785 5783 5781 5779 5775 5771 5769 5766 5764 5762 5760 5758 5753 5750 5748 5746 5743 5740 5738 5737 5734 5733 5731 5730 5728 5726
5766 5785 5785 5774 5796 5801 5802 5804 5799 5787 5793 5806 5798 5793 5791 5788 5786 5782 5779 5777 5775 5773 5769 5766 5765 5762 5758 5756 5755 5751 5747 5745 5743 5740 5737 5735 5733 5730 5728 5727 5726 5724 5722 5721
5761 5763 5746 5778 5808 5806 5799 5798 5802 5798 5798 5798 5793 5791 5788 5785 5782 5777 5775 5772 5770 5768 5765 5763 5761 5757 5754 5752 5748 5745 5741 5738 5737 5734 5731 5729 5728 5725 5723 5722 5720 5718 5716 5715
5750 5744 5751 5774 5790 5792 5780 5778 5795 5791 5790 5791 5790 5785 5777 5780 5778 5774 5772 5769 5765 5764 5761 5757 5754 5751 5747 5744 5741 5737 5734 5731 5730 5728 5725 5723 5722 5720 5718 5716 5713 5712 5710 5708
5743 5732 5731 5755 5780 5791 5780 5761 5783 5784 5779 5779 5777 5761 5759 5772 5771 5767 5766 5763 5760 5758 5755 5750 5747 5744 5739 5735 5731 5728 5727 5725 5723 5721 5719 5717 5715 5713 5712 5710 5708 5706 5704 5703
5734 5732 5738 5759 5773 5776 5747 5745 5769 5772 5770 5769 5761 5757 5760 5764 5762 5760 5758 5756 5753 5749 5745 5742 5740 5736 5730 5726 5722 5722 5721 5719 5716 5714 5712 5711 5709 5707 5705 5703 5701 5700 5698 5697
5729 5723 5725 5756 5759 5746 5742 5756 5759 5760 5761 5758 5757 5756 5756 5754 5750 5748 5747 5745 5742 5738 5735 5733 5731 5727 5721 5717 5717 5716 5714 5711 5709 5707 5706 5705 5702 5700 5699 5696 5694 5692 5691 5689
5728 5727 5740 5749 5748 5749 5752 5748 5749 5750 5752 5751 5748 5746 5745 5743 5741 5738 5737 5735 5733 5730 5726 5724 5722 5719 5713 5711 5710 5709 5707 5704 5702 5701 5699 5697 5694 5691 5690 5689 5687 5686 5685 5684
5722 5729 5734 5739 5741 5742 5742 5740 5742 5743 5743 5742 5738 5738 5736 5734 5732 5730 5728 5725 5725 5722 5717 5715 5714 5711 5708 5706 5704 5701 5698 5695 5695 5694 5692 5690 5687 5685 5683 5682 5680 5680 5679 5678
5710 5718 5722 5726 5728 5730 5732 5732 5733 5733 5734 5733 5731 5728 5726 5724 5723 5722 5721 5719 5718 5714 5710 5708 5706 5703 5701 5699 5697 5693 5691 5689 5688 5687 5685 5682 5679 5677 5677 5675 5674 5672 5672 5672
5701 5709 5708 5710 5719 5722 5720 5719 5721 5720 5721 5723 5723 5720 5718 5716 5715 5714 5712 5711 5709 5706 5703 5701 5698 5696 5694 5693 5690 5686 5684 5683 5681 5680 5678 5676 5673 5671 5669 5668 5667 5666 5665 5665
5706 5708 5707 5708 5711 5712 5710 5711 5712 5712 5712 5713 5714 5714 5711 5708 5707 5706 5704 5702 5700 5698 5696 5694 5692 5689 5687 5686 5683 5680 5677 5676 5675 5674 5672 5671 5669 5666 5662 5660 5659 5658 5657 5657
5701 5698 5694 5697 5698 5701 5702 5704 5705 5706 5706 5707 5706 5705 5703 5701 5699 5696 5695 5695 5694 5692 5689 5687 5684 5682 5681 5680 5677 5674 5672 5670 5670 5669 5667 5665 5663 5661 5658 5656 5654 5652 5650 5648
5691 5691 5689 5691 5691 5692 5693 5694 5693 5694 5696 5696 5697 5695 5694 5691 5690 5689 5689 5689 5687 5684 5682 5680 5677 5675 5675 5673 5671 5669 5667 5666 5665 5664 5662 5660 5658 5656 5654 5652 5649 5646 5644 5641
5683 5684 5683 5682 5681 5682 5683 5683 5683 5684 5686 5686 5687 5685 5685 5685 5684 5683 5682 5681 5678 5675 5674 5672 5670 5670 5669 5667 5665 5664 5663 5661 5659 5658 5656 5653 5652 5650 5647 5645 5643 5640 5638 5636
5671 5671 5672 5672 5673 5674 5675 5676 5676 5677 5678 5677 5678 5679 5678 5677 5675 5674 5674 5674 5672 5670 5668 5666 5664 5663 5662 5661 5659 5658 5657 5656 5653 5652 5649 5647 5645 5643 5641 5639 5637 5635 5632 5630
5670 5670 5670 5669 5668 5668 5668 5669 5670 5670 5671 5671 5671 5671 5669 5667 5666 5666 5667 5667 5665 5663 5662 5661 5659 5657 5656 5654 5652 5652 5650 5648 5647 5645 5643 5641 5639 5638 5636 5634 5631 5629 5626 5623
5666 5665 5665 5665 5664 5662 5662 5661 5662 5663 5664 5665 5663 5662 5661 5661 5660 5660 5660 5658 5657 5655 5655 5655 5652 5651 5649 5648 5646 5645 5645 5642 5641 5638 5635 5633 5633 5633 5631 5628 5626 5624 5621 5618
5659 5659 5658 5657 5657 5656 5655 5656 5657 5657 5657 5657 5655 5654 5653 5653 5654 5653 5652 5651 5651 5651 5651 5649 5648 5646 5645 5643 5640 5640 5640 5638 5635 5633 5629 5626 5625 5624 5623 5622 5620 5617 5615 5613
5649 5650 5648 5647 5646 5647 5648 5650 5650 5649 5650 5650 5648 5647 5646 5647 5648 5647 5646 5644 5645 5646 5645 5643 5642 5641 5640 5636 5635 5636 5635 5633 5630 5627 5624 5620 5619 5617 5616 5615 5613 5611 5609 5607
5640 5640 5640 5639 5639 5639 5641 5643 5644 5643 5643 5643 5643 5642 5641 5641 5642 5642 5642 5640 5640 5638 5639 5639 5638 5635 5633 5631 5632 5632 5630 5628 5625 5621 5618 5616 5614 5612 5610 5609 5607 5605 5602 5601
5632 5632 5632 5631 5632 5633 5635 5636 5636 5636 5636 5636 5636 5636 5637 5637 5638 5638 5636 5637 5637 5633 5634 5633 5630 5628 5625 5627 5628 5627 5625 5623 5620 5617 5615 5611 5610 5608 5605 5603 5601 5599 5597 5595
5624 5625 5625 5626 5627 5627 5626 5629 5631 5631 5632 5632 5633 5633 5633 5633 5634 5636 5635 5632 5630 5627 5628 5626 5623 5622 5620 5622 5622 5621 5619 5617 5616 5614 5611 5609 5606 5604 5601 5599 5597 5595 5593 5591
5618 5619 5619 5620 5620 5621 5622 5624 5625 5625 5626 5628 5630 5631 5632 5631 5630 5631 5630 5629 5625 5622 5623 5621 5619 5617 5618 5618 5617 5616 5614 5612 5611 5609 5607 5604 5602 5599 5596 5594 5591 5589 5587 5585
5613 5614 5615 5616 5617 5618 5619 5620 5620 5621 5623 5624 5625 5626 5627 5627 5626 5625 5623 5622 5621 5618 5619 5617 5616 5614 5615 5615 5613 5611 5609 5607 5606 5604 5602 5599 5597 5594 5591 5589 5586 5583 5581 5579
5610 5611 5610 5613 5614 5616 5617 5617 5617 5618 5619 5619 5619 5619 5620 5620 5620 5619 5618 5617 5615 5614 5614 5613 5613 5612 5612 5611 5609 5607 5605 5603 5601 5598 5596 5593 5590 5588 5585 5582 5580 5577 5575 5572